FENGYUN 1C DEB, 31475

Orbit data source: Space-Track

FENGYUN 1C DEB, 31475 is space debris in SSO originally from a launch on Mon, 10 May 1999 UTC launched from the Taiyaun Space Center, China (TSC). Fengyun 1C debris stems from the Chinese weather satellite Fengyun-1C, which was intentionally destroyed by a Chinese anti-satellite missile in 2007. This event dramatically increased the amount of space debris, with thousands of trackable fragments posing hazards to satellites and human spaceflight. The Fengyun 1C debris cloud has become a focal point in discussions about space sustainability and the need for international regulations to prevent the creation of new debris.

Loading next visibility...
Identifier
31475, 1999-025BVP
Orbit
SSO
Country
Flag of CNCN / PRC
Related business
Manufacturer
Unknown
Mission
Spacecraft
Bus & Motor
Unknown
Mass
Unknown
Launch date (UTC)
1999-05-10 (27 years ago)
Launch vehicle
Unknown
Launch site
Taiyaun Space Center, China (TSC)
Object type
Payload
Rocket body
Debris
Shape & HBR
Unknown shape, 0.1 m
Radar Cross Section
Small (<0.1 m²)

Expand to show TLE details & history
Last TLE update: 3 days ago

TLE from 3 days ago
0 FENGYUN 1C DEB
1 31475U 99025BVP 26166.52577028  .00001484  00000-0  38664-3 0  9999
2 31475  98.9248  67.9056 0206732 281.7450  76.0611 14.39333255987364
Epoch: 2026-06-15T12:37Z
TLE epoch observation values (Epoch: 2026-06-15T12:37:06.552Z)
Latitude
0.00004°
Longitude
-25.18261°
Altitude
730.975 km
Speed
7.507 km/s
True Right ascension
04h 31m 37s
True Declination
0° 00' 00"
Sunlit
Object was in daylight at epoch
Visualization orbit readout
Latitude
Unknown
Longitude
Unknown
Altitude
Unknown
Speed
Unknown
Apparent Right ascension
Unknown
Apparent Declination
Unknown
Sunlit
N/A
Visualization observer readout
Local Sidereal Time
07:53:31
Azimuth
Unknown
Elevation
Unknown
Doppler factor
Unknown
Orbital elements
Apogee altitude
905.367 km
Perigee altitude
610.32 km
Semi-major axis
7,135.981 km
Eccentricity
0.02067
Inclination
98.9248°
RAAN
67.9056°
Arg. of periapsis
281.745°
True anomaly
78.37408°
Mean anomaly
76.0611°
Eccentric anomaly
77.21623°
Mean motion
3.6005 °/min
Orbital period
99.99 mins
BSTAR
0.00038664
Loading maneuver chart data...
Computing Atmospheric mass density...
Loading historical data...
Loading historical data...
Loading historical data...
Loading historical data...
Loading historical data...
Loading historical data...
Loading historical data...

Documentation

Showing up to 5 results
|